Hourly Data Report for May 28, 2012

All times are specified in Local Standard Time (LST). Add 1 hour to adjust for Daylight Saving Time where and when it is observed.

OTTAWA INTL A
ONTARIO

45°19'00.000" N
75°40'00.000" W
114.90 m
6106001
71628
YOW

Download Data

Hourly Data (May 2012)
Hourly Data Report for May 28, 2012
Temp Definition
°C
Dew Point Temp Definition
°C
Rel Hum Definition
%
Wind Dir Definition
10's deg

Wind Spd Definition
km/h
Visibility Definition
km
Stn Press Definition
kPa
Hmdx Definition


Wind Chill Definition


Weather Definition


TIME
00:00 Legend Double Dagger 13.5 9.8 78 6 9 10.0 100.31     LegendNANA
01:00 Legend Double Dagger 12.7 9.6 81 6 5 10.0 100.27     Mostly Cloudy
02:00 Legend Double Dagger 13.5 9.6 77 6 12 10.0 100.23     LegendNANA
03:00 Legend Double Dagger 14.0 10.3 78 4 15 10.0 100.22     LegendNANA
04:00 Legend Double Dagger 13.7 10.2 79 5 12 10.0 100.21     Mostly Cloudy
05:00 Legend Double Dagger 14.2 10.3 77 6 14 10.0 100.25     LegendNANA
06:00 Legend Double Dagger 15.1 10.1 72 7 18 10.0 100.19     LegendNANA
07:00 Legend Double Dagger 16.6 9.8 64 7 21 10.0 100.18     Mainly Clear
08:00 Legend Double Dagger 17.2 9.9 62 7 17 10.0 100.25     LegendNANA
09:00 Legend Double Dagger 18.8 10.5 58 10 22 10.0 100.19     LegendNANA
10:00 Legend Double Dagger 20.0 11.9 59 9 17 10.0 100.10     Mainly Clear
11:00 Legend Double Dagger 19.8 11.7 59 7 18 10.0 100.06     LegendNANA
12:00 Legend Double Dagger 22.3 12.1 52 9 17 10.0 99.99 25   LegendNANA
13:00 Legend Double Dagger 23.2 12.7 51 8 22 10.0 99.93 26   Mainly Clear
14:00 Legend Double Dagger 24.3 12.8 48 7 23 10.0 99.83 27   LegendNANA
15:00 Legend Double Dagger 22.9 12.7 52 7 28 10.0 99.73 26   LegendNANA
16:00 Legend Double Dagger 21.5 12.5 56 8 26 10.0 99.72     Mostly Cloudy
17:00 Legend Double Dagger 21.2 12.7 58 8 23 10.0 99.69     LegendNANA
18:00 Legend Double Dagger 20.2 12.0 59 8 23 10.0 99.66     LegendNANA
19:00 Legend Double Dagger 17.7 10.2 61 8 24 10.0 99.65     Cloudy
20:00 Legend Double Dagger 15.9 9.2 64 7 18 10.0 99.66     LegendNANA
21:00 Legend Double Dagger 14.5 8.7 68 6 16 10.0 99.63     LegendNANA
22:00 Legend Double Dagger 13.7 8.2 69 8 14 10.0 99.57     Mainly Clear
23:00 Legend Double Dagger 13.0 8.1 72 7 13 10.0 99.49     LegendNANA

Notes on Data Quality.

Legend

  • E = Estimated
  • M = Missing
  • NA = Not Available
  • ‡ = Partner data that is not subject to review by the National Climate Archives
Date modified: